TimeCST,TemperatureF,Dew PointF,Humidity,Sea Level PressureIn,VisibilityMPH,Wind Direction,Wind SpeedMPH,Gust SpeedMPH,PrecipitationIn,Events,Conditions,WindDirDegrees,DateUTC
12:15 AM,28.4,23.0,80,30.19,10.0,South,4.6,-,N/A,,Clear,180,2013-03-09 06:15:00
12:35 AM,28.4,23.0,80,30.19,10.0,South,4.6,-,N/A,,Clear,170,2013-03-09 06:35:00
12:55 AM,28.4,23.0,80,30.18,10.0,South,4.6,-,N/A,,Clear,180,2013-03-09 06:55:00
1:15 AM,28.4,23.0,80,30.18,10.0,South,3.5,-,N/A,,Clear,190,2013-03-09 07:15:00
1:35 AM,28.4,23.0,80,30.16,10.0,South,3.5,-,N/A,,Clear,180,2013-03-09 07:35:00
1:55 AM,28.4,23.0,80,30.15,10.0,South,4.6,-,N/A,,Clear,180,2013-03-09 07:55:00
2:15 AM,28.4,23.0,80,30.15,10.0,South,4.6,-,N/A,,Clear,190,2013-03-09 08:15:00
2:35 AM,28.4,23.0,80,30.14,10.0,SSW,4.6,-,N/A,,Clear,200,2013-03-09 08:35:00
2:55 AM,28.4,23.0,80,30.13,10.0,South,5.8,-,N/A,,Clear,180,2013-03-09 08:55:00
3:15 AM,28.4,23.0,80,30.12,10.0,South,4.6,-,N/A,,Clear,170,2013-03-09 09:15:00
3:35 AM,28.4,23.0,80,30.12,10.0,Calm,Calm,-,N/A,,Clear,0,2013-03-09 09:35:00
3:55 AM,28.4,23.0,80,30.11,10.0,South,4.6,-,N/A,,Clear,170,2013-03-09 09:55:00
4:15 AM,30.2,23.0,75,30.11,10.0,South,3.5,-,N/A,,Clear,170,2013-03-09 10:15:00
4:35 AM,30.2,23.0,75,30.10,10.0,SSE,4.6,-,N/A,,Clear,160,2013-03-09 10:35:00
4:55 AM,30.2,23.0,75,30.10,10.0,South,5.8,-,N/A,,Clear,170,2013-03-09 10:55:00
5:15 AM,30.2,23.0,75,30.10,10.0,South,5.8,-,N/A,,Mostly Cloudy,180,2013-03-09 11:15:00
5:35 AM,30.2,23.0,75,30.10,10.0,South,4.6,-,N/A,,Overcast,180,2013-03-09 11:35:00
5:55 AM,30.2,21.2,69,30.09,10.0,South,5.8,-,N/A,,Overcast,170,2013-03-09 11:55:00
6:15 AM,30.2,21.2,69,30.09,10.0,SSE,5.8,-,N/A,,Overcast,160,2013-03-09 12:15:00
6:35 AM,30.2,21.2,69,30.08,10.0,South,5.8,-,N/A,,Overcast,170,2013-03-09 12:35:00
6:55 AM,30.2,21.2,69,30.07,10.0,South,5.8,-,N/A,,Overcast,180,2013-03-09 12:55:00
7:15 AM,32.0,21.2,64,30.07,10.0,South,5.8,-,N/A,,Overcast,180,2013-03-09 13:15:00
7:35 AM,32.0,21.2,64,30.07,10.0,South,6.9,-,N/A,,Overcast,170,2013-03-09 13:35:00
7:55 AM,32.0,21.2,64,30.07,10.0,SSW,4.6,-,N/A,,Overcast,200,2013-03-09 13:55:00
8:15 AM,32.0,23.0,69,30.06,10.0,South,4.6,-,N/A,,Overcast,170,2013-03-09 14:15:00
8:35 AM,32.0,23.0,69,30.04,10.0,SSE,6.9,-,N/A,,Overcast,150,2013-03-09 14:35:00
8:55 AM,32.0,24.8,75,30.03,3.0,SSE,5.8,-,N/A,Snow,Light Snow,160,2013-03-09 14:55:00
9:15 AM,30.2,26.6,86,30.02,0.5,SSE,6.9,-,N/A,Snow,Snow,150,2013-03-09 15:15:00
9:35 AM,30.2,28.4,93,30.02,0.5,SSE,3.5,-,N/A,Snow,Snow,160,2013-03-09 15:35:00
9:55 AM,30.2,28.4,93,30.00,3.0,SE,6.9,-,N/A,Snow,Light Snow,140,2013-03-09 15:55:00
10:15 AM,32.0,28.4,87,29.99,5.0,SE,8.1,-,N/A,Snow,Light Snow,140,2013-03-09 16:15:00
10:35 AM,32.0,28.4,87,29.97,5.0,SE,9.2,20.7,N/A,Snow,Light Snow,140,2013-03-09 16:35:00
10:55 AM,32.0,28.4,87,29.96,1.8,SSE,11.5,19.6,N/A,Snow,Light Snow,150,2013-03-09 16:55:00
11:15 AM,32.0,30.2,93,29.95,3.0,SSE,12.7,17.3,N/A,Snow,Light Snow,160,2013-03-09 17:15:00
11:35 AM,32.0,30.2,93,29.94,4.0,SSE,8.1,16.1,N/A,,Overcast,160,2013-03-09 17:35:00
11:55 AM,32.0,30.2,93,29.94,4.0,SSE,9.2,16.1,N/A,,Overcast,160,2013-03-09 17:55:00
12:15 PM,32.0,30.2,93,29.93,3.0,SSE,10.4,-,N/A,,Overcast,160,2013-03-09 18:15:00
12:35 PM,33.8,32.0,93,29.91,7.0,SSE,6.9,16.1,0.01,,Overcast,160,2013-03-09 18:35:00
12:55 PM,33.8,32.0,93,29.90,10.0,South,8.1,21.9,0.01,,Overcast,170,2013-03-09 18:55:00
1:15 PM,33.8,32.0,93,29.89,10.0,South,10.4,20.7,N/A,,Overcast,170,2013-03-09 19:15:00
1:35 PM,33.8,32.0,93,29.89,10.0,SSE,11.5,20.7,N/A,,Overcast,160,2013-03-09 19:35:00
1:55 PM,33.8,32.0,93,29.87,10.0,SSE,13.8,19.6,N/A,,Overcast,160,2013-03-09 19:55:00
2:15 PM,33.8,32.0,93,29.86,10.0,SSE,10.4,18.4,N/A,,Overcast,160,2013-03-09 20:15:00
2:35 PM,33.8,32.0,93,29.84,5.0,SSE,10.4,20.7,N/A,Snow,Light Snow,160,2013-03-09 20:35:00
2:55 PM,33.8,32.0,93,29.84,4.0,SSE,10.4,16.1,N/A,Snow,Light Snow,160,2013-03-09 20:55:00
3:15 PM,33.8,32.0,93,29.84,3.0,South,9.2,-,N/A,Snow,Light Snow,170,2013-03-09 21:15:00
3:35 PM,33.8,32.0,93,29.84,3.0,South,10.4,-,N/A,Snow,Light Snow,170,2013-03-09 21:35:00
3:55 PM,32.0,32.0,100,29.83,1.5,SSE,9.2,-,N/A,Snow,Light Snow,150,2013-03-09 21:55:00
4:15 PM,32.0,32.0,100,29.83,2.0,SSE,8.1,-,N/A,Snow,Light Snow,150,2013-03-09 22:15:00
4:35 PM,32.0,32.0,100,29.82,2.5,SSE,6.9,-,N/A,,Overcast,150,2013-03-09 22:35:00
4:55 PM,32.0,32.0,100,29.81,2.0,SSE,9.2,-,N/A,,Overcast,150,2013-03-09 22:55:00
5:15 PM,32.0,32.0,100,29.79,3.0,SSE,9.2,-,N/A,,Overcast,150,2013-03-09 23:15:00
5:35 PM,32.0,32.0,100,29.80,4.0,SSE,8.1,-,N/A,,Overcast,160,2013-03-09 23:35:00
5:55 PM,32.0,32.0,100,29.79,5.0,SSE,9.2,-,N/A,,Overcast,150,2013-03-09 23:55:00
6:15 PM,32.0,32.0,100,29.79,5.0,SSE,8.1,-,N/A,,Overcast,160,2013-03-10 00:15:00
6:35 PM,32.0,32.0,100,29.79,5.0,SSE,8.1,-,N/A,,Overcast,160,2013-03-10 00:35:00
6:55 PM,32.0,32.0,100,29.79,5.0,SSE,9.2,-,N/A,,Overcast,160,2013-03-10 00:55:00
7:15 PM,32.0,32.0,100,29.79,5.0,SSE,6.9,-,0.01,,Overcast,160,2013-03-10 01:15:00
7:35 PM,32.0,32.0,100,29.77,7.0,South,8.1,-,0.01,,Overcast,170,2013-03-10 01:35:00
7:55 PM,32.0,32.0,100,29.77,7.0,South,8.1,-,0.01,,Overcast,170,2013-03-10 01:55:00
8:15 PM,32.0,32.0,100,29.76,10.0,SSE,6.9,-,N/A,,Overcast,160,2013-03-10 02:15:00
8:35 PM,32.0,32.0,100,29.76,7.0,SSE,4.6,-,N/A,,Overcast,160,2013-03-10 02:35:00
8:55 PM,32.0,32.0,100,29.76,10.0,South,5.8,-,N/A,,Overcast,170,2013-03-10 02:55:00
9:15 PM,32.0,32.0,100,29.76,10.0,South,5.8,-,N/A,,Overcast,170,2013-03-10 03:15:00
9:35 PM,33.8,32.0,93,29.77,5.0,South,6.9,-,N/A,,Overcast,180,2013-03-10 03:35:00
9:55 PM,32.0,32.0,100,29.76,4.0,South,4.6,-,0.01,,Overcast,170,2013-03-10 03:55:00
10:15 PM,32.0,32.0,100,29.76,7.0,South,3.5,-,N/A,,Overcast,180,2013-03-10 04:15:00
10:35 PM,32.0,32.0,100,29.76,7.0,South,4.6,-,N/A,,Overcast,170,2013-03-10 04:35:00
10:55 PM,32.0,32.0,100,29.76,5.0,South,4.6,-,N/A,,Overcast,190,2013-03-10 04:55:00
11:15 PM,32.0,32.0,100,29.76,4.0,South,5.8,-,N/A,,Overcast,190,2013-03-10 05:15:00
11:35 PM,32.0,32.0,100,29.76,5.0,South,4.6,-,N/A,,Overcast,180,2013-03-10 05:35:00
11:55 PM,32.0,32.0,100,29.75,5.0,Calm,Calm,-,N/A,,Overcast,0,2013-03-10 05:55:00